Current weather by "City, St" or "zip code"  
 

Current Conditions: Ely, Ely Municipal Airport, MN

Fair


52.0 F

Last Updated on Sep 22 2020, 8:55 pm CDT
Humidity: 77%
Wind Speed: N 0.0 mph
Barometer 30.02 in
Dewpoint: 44.6 F
Visibility: 10.00 mi
Precip: --
Heat Index: NA
Wind Chill: NA
Current conditions at:

Ely, Ely Municipal Airport, MN (KELO)

Lat: 47.81667 Lon: 91.83333

Local Radar Image active severe weather and emergency alerts image image weather storm and storm spotter reports image weather observation monitoring service image
Local
Radar
Active
Alerts
Storm Reports Obs
Monitoring

Sign-up For Email & Text Message Weather Alert Notification Services



Advertise Here

Observation History for Ely, Ely Municipal Airport, MN


Time Wind
(mph)
Vis
(mi)
Weather Precip (in) Temperature (F) Relative
Humidity
Wind
Chill
(F)
Heat
Index
(F)
Pressure
Air Dwpt altimeter
(in)
sea level
(mb)
Rmks
8:55 pm CDT N 0.0 10.00 Fair -- 52.0 44.6 77% NA NA 30.02 M
7:55 pm CDT N 0.0 10.00 Fair -- 57.0 44.6 63% NA NA 30.02 M
6:55 pm CDT N 0.0 10.00 Fair -- 66.0 44.6 46% NA NA 30.02 M
5:55 pm CDT NW 4.6 10.00 Fair -- 73.0 41.0 31% NA NA 30.01 M
4:55 pm CDT W 3.5 10.00 Fair -- 75.0 39.2 27% NA NA 30.02 M
3:55 pm CDT W 6.9 10.00 Fair -- 75.0 37.4 25% NA NA 30.02 M
2:55 pm CDT W 9.2 10.00 Fair -- 73.0 35.6 25% NA NA 30.04 M
1:55 pm CDT NW 6.9 G 16.1 10.00 Fair -- 73.0 39.2 29% NA NA 30.06 M
12:55 pm CDT W 4.6 10.00 Fair -- 73.0 42.8 33% NA NA 30.08 M
11:55 am CDT NW 4.6 10.00 Fair -- 70.0 48.2 46% NA NA 30.09 M
10:55 am CDT N 0.0 10.00 Fair -- 66.0 48.2 52% NA NA 30.10 M
9:55 am CDT N 0.0 10.00 Fair -- 61.0 50.0 68% NA NA 30.11 M
8:55 am CDT N 0.0 10.00 Fair -- 54.0 50.0 88% NA NA 30.11 M
7:55 am CDT N 0.0 10.00 Fair -- 46.0 46.4 100% NA NA 30.10 M
6:55 am CDT N 0.0 10.00 Fair -- 46.0 46.4 100% NA NA 30.09 M
5:55 am CDT N 0.0 4.00 Fog/Mist -- 45.0 44.6 100% NA NA 30.08 M
4:55 am CDT N 0.0 7.00 Fair -- 50.0 50.0 100% NA NA 30.06 M
3:55 am CDT N 0.0 10.00 Fair -- 52.0 51.8 100% NA NA 30.05 M
2:55 am CDT N 0.0 10.00 Fair -- 55.0 53.6 94% NA NA 30.04 M
1:55 am CDT SW 4.6 10.00 Fair -- 55.0 51.8 88% 54 NA 30.03 M
12:55 am CDT SW 6.9 10.00 Fair -- 59.0 53.6 82% 58 NA 30.02 M
11:55 pm CDT SW 6.9 10.00 Fair -- 61.0 53.6 77% 60 NA 30.01 M
10:55 pm CDT SW 5.8 10.00 Fair -- 63.0 53.6 73% 63 NA 30.01 M
9:55 pm CDT SW 9.2 G 16.1 10.00 Fair -- 64.0 53.6 68% NA NA 29.99 M

Regional Weather Observation


Crane Lake - Scotts Seaplane Base, MN (KCDD)

Fair
50.0 F

Orr Regional Airport, MN (KORB)

Fair with Haze
61.0 F

Cook Municipal Airport, MN (KCQM)

Fair
55.0 F

Eveleth-Virginia Municipal Airport, MN (KEVM)

Fair
54.0 F

Chisholm-Hibbing Airport, MN (KHIB)

Fair
51.0 F

Silver Bay, MN (KBFW)

NULL
55.0 F